Theta_e
351 349 349 349 349 349 349 351 351 351 352 351 351 352 353 354 355 355 354 353 352 351 351 351 353 355 354 354 354 354 355 355 355 354 353 353 352 352 352 351 350 350 350 350 350 350 349 349 348 348 348 349 350 349 349 349 349 349 349 349 349 349 349 349 349 349 348 347 347 346 346 347 349 350 350 350 350 352 353 353 352 351 351 350 350
352 351 349 349 349 349 349 350 351 351 351 351 351 351 352 353 355 355 355 353 352 351 351 351 352 353 353 354 354 354 354 354 354 354 354 353 353 353 352 352 351 351 350 350 350 350 349 350 349 348 348 349 349 348 348 349 349 349 349 349 349 349 349 349 349 349 347 346 347 350 352 352 351 352 353 352 351 352 353 354 354 353 351 350 350
353 352 350 349 350 349 350 350 350 351 350 349 350 351 353 354 354 355 355 354 353 353 352 351 351 352 352 351 351 352 352 353 353 354 354 354 353 353 352 352 351 351 350 350 350 350 350 350 349 349 349 348 348 347 348 350 348 348 349 350 350 349 350 349 348 348 347 346 349 355 358 357 356 353 351 352 353 353 353 353 354 353 352 352 350
353 352 351 351 351 351 352 351 351 351 350 349 349 350 352 354 354 354 354 354 354 353 351 350 350 351 352 351 351 352 352 353 353 353 354 354 353 354 353 352 351 351 351 351 351 351 350 350 350 349 349 348 347 347 349 350 347 347 349 351 350 350 350 349 348 347 346 348 352 355 353 354 362 357 349 350 351 353 354 352 353 353 353 353 352
353 352 351 350 351 352 352 351 351 350 350 350 350 350 350 352 353 353 353 353 353 352 352 351 349 350 352 351 350 351 352 352 352 352 353 354 354 353 353 352 352 352 352 352 352 351 350 350 350 349 348 347 347 348 350 349 346 346 350 351 351 351 351 349 348 347 347 347 349 354 354 355 362 356 350 352 350 350 352 352 352 352 353 353 353
350 349 348 349 349 351 351 349 349 349 349 349 349 350 350 350 351 352 352 353 353 353 353 353 351 351 352 350 348 348 349 349 349 351 353 353 353 353 353 352 352 352 352 351 351 349 349 349 349 349 348 347 348 349 350 349 345 346 350 352 351 351 351 349 348 348 348 347 346 350 351 352 355 353 354 358 351 349 350 349 351 350 351 352 351
348 347 347 347 347 349 350 348 348 347 347 348 348 348 349 350 350 350 351 351 352 352 352 353 353 353 354 352 351 350 349 349 350 352 353 353 353 352 352 352 351 351 352 351 350 349 349 349 348 349 348 348 348 349 350 348 344 346 350 352 351 352 351 350 349 349 349 348 347 347 346 346 349 352 357 358 356 355 350 347 349 350 351 351 350
348 347 346 346 346 348 348 349 348 348 348 348 348 348 349 349 349 349 350 350 350 351 351 351 352 353 354 353 353 352 351 351 351 351 351 352 352 352 352 352 350 350 351 352 351 350 349 349 349 349 349 349 349 349 350 348 344 345 350 352 352 352 351 350 350 350 349 349 349 348 347 347 347 350 351 352 356 360 355 351 350 349 351 351 351
347 347 346 345 345 346 347 348 348 348 349 348 348 348 348 348 348 348 349 349 350 350 350 350 350 351 352 352 353 352 352 351 351 350 350 350 350 351 352 351 351 350 350 351 351 351 350 350 350 350 349 349 349 349 349 349 345 344 348 351 352 351 351 351 350 350 351 350 349 348 347 348 348 350 349 347 351 356 359 359 353 349 351 351 350
347 346 344 344 344 344 345 346 347 348 349 349 349 349 348 348 347 347 347 348 348 348 349 349 350 351 351 351 351 351 351 351 351 351 350 349 349 350 351 351 351 350 349 350 351 351 350 351 350 350 350 349 349 349 349 350 346 343 347 350 351 351 350 351 350 350 351 350 349 348 349 350 350 351 350 349 350 351 355 357 351 350 355 352 350
348 346 343 341 342 343 343 345 346 347 348 349 350 350 350 349 348 348 347 346 346 346 346 347 349 351 351 351 351 351 351 351 351 351 351 350 349 350 351 350 351 351 349 349 349 350 349 349 350 350 351 350 350 349 349 350 346 342 345 350 351 350 351 351 351 351 352 350 348 348 349 350 350 351 350 349 351 352 354 356 351 350 353 352 351
348 348 345 341 340 341 342 343 344 347 348 349 350 350 350 351 350 350 348 347 347 346 346 346 347 348 349 350 351 351 350 350 350 351 351 351 350 350 351 350 351 351 350 349 349 349 348 348 350 351 351 350 350 349 349 350 348 342 343 349 351 350 350 351 352 352 352 350 348 347 348 348 348 348 349 350 351 351 353 355 352 350 353 352 351
349 349 349 344 340 340 340 341 342 345 346 347 349 350 350 351 350 350 350 349 348 348 348 347 346 347 347 348 349 349 350 349 350 350 350 350 350 350 350 351 351 351 350 350 349 349 348 349 350 350 350 350 350 350 350 350 349 344 341 347 350 350 350 351 352 352 352 351 349 347 347 347 347 348 348 350 351 350 351 353 352 351 354 354 351
351 351 352 345 340 339 339 340 341 342 343 344 346 348 349 350 350 350 350 349 349 349 348 348 348 348 348 347 348 347 348 348 349 349 349 350 350 350 350 350 351 351 350 351 350 349 349 349 350 350 350 350 350 350 350 350 350 345 341 344 349 350 350 351 350 350 350 351 350 349 347 347 347 348 348 349 351 351 350 352 353 352 352 352 352
352 351 351 343 339 340 340 340 340 340 341 340 342 343 345 347 349 350 349 348 349 349 348 348 348 349 349 349 349 349 349 349 349 350 350 350 350 349 349 349 350 351 351 351 350 348 348 349 350 350 350 350 351 351 351 351 350 348 344 343 346 349 349 349 348 348 349 350 350 350 349 348 348 348 348 349 351 351 351 351 352 355 355 353 352
352 353 351 341 338 340 339 339 340 340 340 340 341 341 341 343 345 347 347 346 347 347 347 347 347 348 349 350 351 351 351 351 351 351 351 351 350 349 349 349 349 350 351 351 351 349 348 349 350 351 351 350 351 351 352 351 351 350 349 346 344 346 347 347 347 348 349 349 349 350 350 349 349 349 349 350 351 351 352 351 351 353 355 355 354
349 352 348 340 338 339 339 339 339 339 339 339 340 341 341 341 341 342 343 343 344 345 345 345 346 346 347 348 349 350 351 351 351 351 351 350 350 350 350 350 350 350 350 351 351 350 349 349 350 351 352 351 351 351 351 351 351 351 350 349 347 346 347 348 348 349 350 350 350 349 349 350 349 349 349 350 352 352 352 352 352 352 353 355 356
346 347 343 338 337 339 338 339 339 339 339 339 339 340 340 341 340 340 340 340 341 343 343 343 344 344 345 345 347 348 349 350 351 351 351 351 350 350 350 350 350 350 350 350 350 350 350 351 351 351 351 352 351 352 351 351 351 351 351 350 349 348 349 349 349 349 351 351 351 349 349 349 350 349 350 350 352 353 353 353 354 353 353 353 355
348 350 347 339 337 339 339 339 339 339 339 339 338 338 338 340 340 340 339 340 340 340 340 340 343 344 344 344 345 346 347 349 350 351 351 351 350 350 350 349 349 349 349 349 349 351 352 352 353 353 352 352 351 351 351 351 351 351 351 350 350 350 350 350 350 349 350 352 352 350 349 350 350 350 350 351 353 354 354 353 353 354 353 353 352
352 354 351 340 336 339 339 338 339 338 338 338 337 337 337 338 339 338 337 338 339 340 339 339 340 342 343 343 344 345 346 347 349 350 350 351 350 349 349 349 349 348 348 349 350 352 352 350 349 352 353 352 351 351 351 351 351 350 350 350 350 350 350 350 351 351 351 352 352 351 350 351 351 350 351 352 353 354 354 353 353 353 353 353 352
352 354 351 340 337 339 338 337 338 337 337 337 336 336 337 337 336 336 335 337 338 339 339 339 339 340 341 342 344 345 346 346 347 349 350 351 351 350 349 349 349 348 348 349 349 351 352 350 347 349 352 352 351 351 350 350 350 350 350 349 349 349 349 350 350 351 352 352 352 352 352 351 351 351 352 352 353 354 354 353 353 353 353 353 352
353 354 347 338 337 338 336 335 336 335 335 334 334 335 336 336 335 334 335 336 336 336 337 338 338 339 339 341 342 345 346 346 346 348 350 351 351 351 351 350 349 348 347 348 347 348 350 350 348 347 350 352 352 351 350 350 349 349 349 349 349 349 349 350 350 351 351 352 352 352 352 351 351 352 352 353 353 353 353 353 353 354 354 353 353
353 350 341 336 339 337 334 334 334 335 334 333 334 334 335 335 334 334 334 334 335 335 335 336 337 337 338 339 341 343 345 346 346 347 348 349 350 351 351 351 350 348 347 347 347 349 350 350 350 349 348 351 353 352 351 350 349 349 349 349 349 349 349 350 350 350 350 350 352 352 352 352 352 353 353 352 353 352 353 353 353 354 354 353 353
351 348 338 335 337 335 333 333 333 334 333 333 334 334 334 335 333 333 333 333 335 335 335 335 335 335 336 337 339 342 344 345 346 347 347 347 348 349 351 351 351 350 349 349 349 350 351 351 352 353 351 352 353 352 351 351 350 350 350 349 349 349 349 350 350 350 350 350 350 351 352 353 352 353 352 352 352 353 353 353 354 354 354 353 353
352 354 346 338 336 333 333 333 333 334 334 333 333 333 333 332 332 332 333 333 334 334 333 333 333 334 336 336 338 341 343 343 344 347 348 347 347 347 348 350 351 351 351 351 351 350 351 352 352 353 352 353 353 352 351 351 350 350 349 349 349 349 349 349 349 349 349 349 350 350 351 352 353 352 352 352 353 353 353 354 354 354 354 354 353
353 356 352 343 336 332 332 332 332 333 333 332 333 332 332 331 332 333 333 333 334 333 333 333 334 335 336 336 337 339 342 343 343 345 347 348 348 347 347 347 347 349 350 350 351 350 351 352 352 352 352 353 353 353 352 351 350 349 349 349 349 348 348 348 349 349 349 349 349 349 350 351 352 353 352 352 353 353 354 354 354 355 354 354 353
354 354 351 345 338 332 330 332 332 331 332 332 331 332 332 332 333 333 333 333 333 333 333 333 334 335 337 337 337 338 341 343 342 343 345 347 348 348 347 345 344 346 347 348 348 349 350 351 351 351 352 352 352 352 352 351 351 350 349 348 348 347 348 348 348 348 348 348 349 349 350 351 351 352 352 353 353 353 354 354 354 354 354 354 353
354 354 351 348 345 335 329 331 332 331 330 331 331 331 331 332 333 333 332 333 333 333 333 333 334 335 336 336 336 337 340 342 342 343 344 346 347 347 346 345 343 344 346 347 347 348 348 349 350 351 351 352 352 351 352 352 352 351 350 350 349 348 347 347 347 347 347 348 348 348 349 350 350 351 351 353 353 353 354 354 354 354 354 354 354
353 351 348 349 346 336 329 330 331 330 330 330 331 331 331 331 332 332 332 332 333 333 333 333 334 334 334 335 335 337 339 342 342 342 343 344 345 346 346 345 344 345 346 348 348 348 348 349 349 350 350 351 351 351 351 351 351 352 352 352 351 351 349 348 347 347 347 347 347 348 348 348 349 349 350 353 353 353 354 354 354 354 354 355 354
349 346 346 347 340 330 328 330 329 329 330 331 331 331 331 331 331 332 332 332 333 333 333 334 334 334 333 334 334 337 339 340 341 341 342 344 344 345 345 345 345 345 346 348 348 348 349 349 350 350 350 351 351 350 350 350 351 351 352 353 353 353 352 350 348 347 347 347 347 347 348 347 348 349 350 353 354 354 354 354 354 354 354 355 354
348 345 346 347 337 327 327 329 329 330 331 330 330 331 331 331 331 332 332 332 333 333 333 333 334 334 334 334 335 337 338 337 339 341 342 343 343 343 344 345 345 345 346 347 347 348 348 348 350 350 350 351 351 351 351 351 351 352 352 353 353 353 352 350 349 348 347 347 347 347 348 347 348 350 352 354 355 355 355 354 354 354 355 355 355
346 345 348 349 339 328 326 329 330 330 331 330 331 331 331 331 331 331 332 332 332 332 333 334 334 334 334 335 336 337 336 335 338 340 342 343 343 343 344 344 345 345 346 347 347 348 348 348 348 349 350 350 350 351 352 352 352 352 352 353 352 352 352 350 350 349 348 348 348 348 348 347 348 350 352 354 356 356 357 356 355 355 355 356 356
345 346 348 344 335 328 327 330 330 330 331 331 331 331 331 331 331 332 332 332 331 332 333 334 334 334 334 335 336 337 336 335 336 338 341 343 343 343 343 343 344 345 345 347 347 348 348 348 348 348 349 349 349 350 351 351 351 351 351 351 352 352 351 351 350 350 350 350 349 349 349 348 349 350 351 353 356 357 358 358 358 358 358 357 357
345 347 341 331 327 328 329 330 330 330 331 331 331 331 331 331 332 332 333 332 332 332 333 333 334 334 334 335 336 336 336 336 336 337 339 341 342 343 342 342 343 344 345 346 346 347 347 348 348 348 349 349 348 348 348 348 349 349 349 350 350 351 352 351 351 351 351 351 351 350 351 351 351 352 352 354 356 357 358 358 359 360 360 359 358
347 345 334 325 326 329 329 330 331 332 331 331 331 331 332 332 332 332 332 332 332 333 333 333 333 333 334 334 335 335 336 336 336 336 337 338 340 341 341 342 342 343 344 344 344 345 346 347 347 348 348 349 349 349 348 348 348 349 349 349 349 350 351 351 351 351 351 352 352 351 352 352 352 353 354 355 355 356 357 358 358 359 359 359 359
339 335 328 326 327 329 330 331 332 331 330 330 331 331 331 332 332 332 332 332 332 332 333 333 333 333 333 334 334 335 335 335 336 336 337 337 338 340 341 341 342 342 343 343 343 344 345 346 348 348 348 349 349 349 349 349 349 350 350 350 350 350 350 350 350 351 351 352 352 352 352 353 353 353 353 354 355 355 356 356 355 355 356 357 357
328 328 327 328 329 330 332 333 331 330 330 330 331 331 331 331 331 332 332 332 332 332 333 333 333 333 333 333 334 335 335 335 336 336 337 338 339 340 341 341 342 342 342 342 343 343 344 346 347 347 347 347 348 348 348 348 348 349 350 350 350 350 350 350 350 350 350 351 351 352 352 353 353 354 354 354 355 356 356 354 353 352 353 354 355
327 328 329 329 331 332 333 333 332 331 331 331 331 331 331 331 331 331 332 332 332 332 333 333 333 333 333 333 334 334 335 335 335 336 336 337 339 340 340 341 342 342 342 342 343 344 344 345 346 346 346 346 347 347 347 346 347 347 348 348 348 349 350 350 350 350 350 351 351 350 351 352 353 353 353 354 354 355 355 354 352 352 352 352 353
328 329 330 331 333 333 333 332 332 331 331 331 331 331 331 331 331 331 331 332 332 332 332 332 333 333 333 333 333 334 335 335 335 335 335 336 338 339 340 341 342 341 341 341 343 344 345 345 346 346 346 347 347 346 346 346 346 347 346 346 346 347 348 348 349 349 350 350 350 350 350 351 352 352 352 353 353 353 353 354 353 353 352 352 353
330 331 332 332 333 333 332 332 332 331 332 331 331 331 331 331 331 331 331 332 332 332 332 332 333 333 333 333 334 334 335 335 334 334 334 335 337 338 340 342 341 340 340 340 342 344 344 345 346 346 346 346 346 346 346 346 347 347 347 346 346 346 346 347 347 348 348 348 348 349 349 349 350 351 351 352 351 351 352 352 353 353 352 352 352
331 332 332 332 333 333 332 332 332 332 332 331 331 331 331 330 331 331 331 331 331 332 332 332 333 333 333 334 334 334 334 334 333 333 334 335 337 339 341 341 340 340 339 340 342 343 344 345 345 345 345 345 345 346 346 346 347 347 348 348 347 347 347 347 346 346 347 347 347 347 348 348 348 349 349 350 350 351 351 351 352 352 352 352 352
332 332 332 332 333 333 332 332 332 332 332 331 331 331 330 331 331 330 331 331 331 332 332 332 333 333 333 334 334 334 334 334 333 333 334 336 338 340 341 341 340 339 339 340 341 342 343 344 344 344 344 344 344 345 345 346 347 348 348 349 349 349 349 348 347 346 347 347 346 347 347 347 347 347 347 348 349 349 351 352 351 352 353 352 352
332 332 332 332 332 332 332 332 332 332 332 331 331 331 331 331 330 330 331 331 331 331 332 332 332 333 333 333 334 334 334 333 333 333 334 336 338 339 340 340 339 339 339 340 341 342 343 344 344 344 343 342 343 344 345 346 347 347 348 348 349 349 349 348 347 347 347 347 346 347 346 347 347 347 347 348 347 348 349 351 352 352 352 352 353
332 331 333 333 332 332 333 332 333 333 332 332 331 331 330 330 330 330 330 330 331 331 331 332 332 332 333 333 333 333 334 333 333 333 335 337 338 338 339 340 339 339 339 340 341 341 343 343 344 344 343 342 342 343 344 345 346 347 347 348 348 348 348 347 347 347 347 347 346 346 346 347 347 348 347 347 347 346 347 349 351 352 352 352 353
332 332 332 332 332 332 332 332 333 333 332 332 331 330 330 330 330 330 330 330 330 330 330 331 332 332 333 333 333 333 333 333 334 334 336 337 337 338 338 339 338 338 339 340 341 341 342 343 343 343 342 342 341 341 342 343 345 345 347 347 347 346 346 345 346 346 346 346 345 346 346 346 346 346 347 347 347 347 348 349 350 351 352 352 351
332 332 332 332 332 332 332 332 333 333 332 332 331 330 330 330 330 329 330 330 329 329 330 330 331 332 332 332 333 333 333 334 334 335 335 336 337 337 337 337 338 338 339 340 341 341 341 343 343 343 342 342 342 341 341 342 344 344 345 345 344 345 345 345 345 345 345 345 345 345 345 345 345 345 346 347 347 347 347 349 350 351 351 351 348
332 332 331 332 331 331 331 332 332 332 332 331 330 331 330 330 329 329 328 329 329 330 330 331 331 331 331 331 332 333 333 334 334 335 335 336 336 336 336 336 337 338 339 340 341 341 341 341 342 343 342 342 341 340 340 341 342 342 343 343 344 344 344 344 344 345 345 344 344 345 345 344 344 344 345 347 347 347 347 348 349 347 346 348 348
332 332 331 331 331 331 331 331 332 332 332 331 330 331 330 329 329 328 328 328 329 330 331 331 331 331 331 331 332 333 333 334 334 335 335 335 336 336 336 336 337 337 338 340 340 341 341 341 341 342 341 341 341 340 340 341 341 341 342 344 344 344 344 344 344 343 343 343 343 343 343 342 341 342 343 344 345 345 345 345 346 344 344 346 347
332 331 331 331 331 331 331 331 332 332 331 331 331 330 330 329 328 327 327 327 328 329 330 331 331 331 331 331 332 332 333 333 334 334 334 334 335 335 335 336 337 337 338 339 340 340 340 340 340 340 340 341 341 341 341 341 341 341 342 343 344 343 343 343 341 340 340 341 340 339 339 338 338 338 339 339 339 340 340 340 341 341 343 344 344
331 331 332 331 331 332 332 332 332 332 331 331 330 329 329 328 327 326 326 326 327 328 330 330 331 331 331 331 332 332 333 333 333 333 333 334 335 335 335 335 336 336 337 338 339 339 339 339 339 339 339 340 340 341 341 342 341 340 341 342 343 343 342 340 339 339 340 340 338 337 337 337 337 337 336 336 336 337 336 336 337 339 340 341 341
331 331 331 330 331 331 331 332 332 331 331 331 330 329 328 327 327 326 325 326 326 327 328 330 330 330 330 331 332 332 332 333 333 333 333 333 333 334 335 335 335 335 336 337 338 339 339 339 338 339 339 340 340 340 340 341 341 341 341 342 342 342 341 338 338 339 340 339 338 337 336 336 337 337 336 336 336 336 336 336 337 337 337 337 338
Wind_Speed
2 4 5 4 4 2 1 3 4 7 11 14 17 19 21 22 22 22 22 23 23 24 24 24 26 26 26 27 29 29 28 28 29 30 30 29 29 29 29 29 29 29 29 29 28 27 26 25 25 25 22 21 20 19 19 18 17 16 15 15 14 15 15 14 12 10 8 7 7 7 8 7 8 8 9 9 10 10 9 10 10 10 11 12 12
4 6 8 6 4 3 3 3 3 5 8 11 14 16 17 19 21 21 21 21 23 25 23 23 26 26 25 27 29 29 28 28 28 28 29 29 29 29 30 30 30 30 30 29 29 28 27 25 25 25 23 23 22 21 19 18 18 17 16 15 13 14 13 11 11 9 7 6 4 3 4 6 8 10 11 11 11 11 11 11 11 11 11 11 11
6 7 9 10 8 6 7 6 3 4 5 7 10 12 13 15 18 21 22 21 23 24 22 23 26 26 25 24 23 22 23 23 24 24 25 26 28 28 29 30 30 30 30 29 28 28 27 27 26 26 25 25 24 22 20 18 18 17 16 14 13 13 11 9 10 10 8 5 2 1 1 2 5 8 11 13 13 12 12 12 12 11 11 11 12
7 7 8 12 14 12 11 9 6 5 6 6 6 8 11 13 15 20 23 23 24 23 23 25 27 26 24 21 18 18 18 18 19 21 22 23 24 25 26 27 27 28 28 28 27 27 27 27 27 27 26 25 24 22 20 18 18 17 15 14 13 12 11 9 9 10 10 7 2 1 1 1 1 3 5 8 11 13 13 12 13 12 12 12 13
7 8 8 10 14 14 14 13 10 9 8 7 7 8 10 12 14 17 21 23 23 23 24 25 25 24 22 18 17 18 17 16 18 20 21 21 23 24 24 25 25 25 25 26 26 25 25 27 27 27 26 24 23 21 19 18 17 16 14 14 14 13 11 10 9 9 11 11 6 2 1 0 1 2 3 4 6 10 12 12 12 13 13 12 13
6 7 8 10 12 13 15 16 14 13 10 8 7 7 7 11 13 16 19 21 22 22 22 22 22 22 20 18 18 18 16 17 20 21 21 22 23 24 24 24 24 23 23 22 23 23 24 25 26 26 24 23 22 21 19 17 17 17 15 14 15 15 13 12 11 10 10 12 13 11 7 5 2 1 1 2 3 6 9 11 12 12 12 12 13
6 6 7 9 12 13 14 16 15 14 12 9 7 6 5 6 9 13 16 19 20 21 21 21 22 22 20 20 22 20 18 20 23 23 22 23 23 22 21 21 22 23 22 21 20 21 22 23 23 24 23 22 21 21 19 18 18 18 16 15 16 16 15 14 14 12 10 11 14 16 16 13 9 5 2 1 2 3 5 8 10 10 10 11 13
5 6 6 8 10 12 12 14 15 14 13 12 10 8 7 6 6 8 11 13 16 17 19 20 21 21 21 21 22 23 23 25 26 24 22 22 21 20 21 22 22 22 21 21 20 20 21 22 23 24 24 23 22 22 20 18 19 20 18 16 17 17 17 16 16 14 12 12 13 16 19 19 15 11 8 4 1 1 3 5 7 9 11 12 13
4 5 5 7 10 11 11 13 15 16 15 14 13 11 9 8 7 7 8 9 10 11 13 16 17 19 20 22 22 24 24 25 24 23 23 23 22 21 21 23 24 22 20 21 20 20 21 22 24 25 25 24 23 23 21 19 20 22 22 18 17 18 18 18 17 16 15 16 15 15 16 16 14 12 10 7 3 2 2 2 4 6 8 11 11
4 5 5 8 9 11 12 13 15 17 17 16 15 14 13 11 9 8 8 9 9 9 10 12 15 16 18 21 22 23 23 23 22 22 23 24 24 24 23 23 24 23 22 21 21 21 21 23 25 27 27 25 24 24 22 21 21 24 24 21 18 17 18 18 18 18 17 18 17 16 14 12 10 8 8 8 4 3 2 2 5 5 5 8 10
4 5 8 11 13 14 16 17 18 18 18 18 18 18 17 15 13 11 10 10 9 8 7 9 12 14 16 18 20 21 21 21 21 22 23 23 23 25 25 24 24 25 25 24 25 24 22 23 27 28 28 27 26 25 24 22 22 24 25 23 20 18 18 17 17 17 17 18 17 17 17 15 12 10 11 12 8 5 3 2 6 6 6 9 10
4 5 7 10 13 16 18 19 20 21 21 21 20 20 19 18 17 16 14 13 12 10 8 8 9 12 15 16 18 19 20 20 21 23 24 23 23 24 24 24 24 25 26 27 28 26 23 22 27 29 29 29 28 26 24 23 22 24 26 25 22 20 19 17 17 16 16 17 18 18 19 19 18 15 14 14 12 10 7 3 4 5 4 7 9
4 4 4 6 8 12 16 18 20 21 22 22 22 22 22 21 20 19 18 17 16 14 12 11 11 11 12 13 14 15 17 19 21 23 24 23 23 23 22 22 23 26 27 28 29 27 24 23 26 29 28 29 29 27 25 24 23 23 26 27 25 22 21 19 19 17 16 16 17 19 20 20 19 17 15 15 14 13 10 5 5 5 4 6 8
3 4 4 4 6 9 12 14 16 18 19 20 21 21 22 23 23 22 21 20 19 18 16 15 14 14 13 13 14 15 16 18 19 21 22 24 24 24 24 24 24 26 27 28 28 27 26 24 24 27 27 27 28 28 26 24 23 23 25 28 28 25 23 22 21 20 18 17 17 19 21 22 21 18 17 16 14 13 11 8 6 4 4 6 6
3 4 4 5 7 9 10 11 12 13 15 16 17 19 20 21 23 24 24 23 22 20 19 19 17 15 14 14 15 16 17 17 19 20 21 22 23 24 25 26 27 28 28 27 26 27 28 25 24 26 26 26 27 28 27 25 23 23 24 27 28 27 25 24 24 23 22 21 19 19 19 21 22 21 18 16 16 15 14 13 9 4 2 4 3
3 3 4 6 7 7 8 9 10 11 12 13 13 15 16 17 18 19 21 23 23 22 21 20 19 17 15 14 15 17 18 19 20 21 22 22 23 23 24 25 27 29 29 27 24 26 27 25 24 26 26 26 27 27 28 26 24 23 23 24 26 27 26 25 25 24 24 23 21 20 19 19 21 21 19 16 15 15 15 15 13 9 4 2 2
3 3 4 5 5 5 5 7 8 9 10 11 11 12 13 14 14 15 16 18 19 20 20 20 20 19 18 16 15 16 17 18 21 22 23 23 23 23 23 24 25 28 30 28 25 24 26 26 26 26 27 27 26 26 27 27 26 25 24 24 24 25 25 25 25 25 24 23 22 22 21 20 19 20 19 16 15 15 15 14 14 13 10 5 1
3 4 4 5 4 4 4 4 6 7 8 9 10 10 10 11 12 12 14 14 15 16 16 18 19 19 20 19 17 16 16 17 19 21 23 23 23 23 23 24 26 27 29 29 26 24 24 25 26 26 27 27 26 26 26 26 27 26 26 26 25 24 25 26 26 26 25 22 21 21 21 19 18 19 19 17 16 15 15 14 14 14 13 10 6
3 4 4 5 5 4 3 4 5 5 6 8 9 10 10 10 11 12 13 13 13 13 14 15 16 17 19 19 19 18 16 16 17 19 21 23 24 24 24 26 26 26 26 27 27 25 24 23 23 23 24 25 25 26 26 26 27 27 27 27 27 26 26 26 26 27 25 22 20 19 19 19 18 19 19 18 18 17 15 15 14 14 15 14 13
3 4 4 5 6 5 4 4 5 5 5 7 9 10 10 9 10 11 13 13 13 13 14 15 15 16 17 18 19 18 17 16 16 17 19 21 23 23 24 25 25 24 24 25 25 26 26 25 23 21 20 20 22 24 26 26 26 26 27 27 27 26 26 27 27 27 25 22 20 19 19 20 19 20 21 20 19 18 17 17 15 14 14 13 15
4 4 4 5 6 5 5 4 4 4 5 7 9 10 10 9 10 12 13 14 14 14 14 16 16 16 17 18 18 18 18 16 16 16 17 18 19 20 21 22 23 22 24 25 25 25 26 25 25 24 21 19 20 22 25 26 26 26 27 27 27 26 26 27 27 27 26 23 22 21 21 21 21 22 22 21 21 20 19 17 16 15 14 13 14
5 5 5 6 7 8 7 6 6 6 7 8 9 9 9 10 12 14 15 15 15 15 15 16 17 17 18 18 18 18 18 18 16 15 17 17 16 17 17 17 18 19 21 24 25 25 23 23 27 28 25 21 20 21 24 26 27 27 27 27 27 27 27 27 27 28 28 26 23 23 23 23 23 23 23 22 22 21 19 18 17 16 17 16 15
5 5 6 7 8 9 10 10 9 9 10 11 11 11 11 11 14 16 17 17 16 17 17 17 18 18 19 19 19 18 18 18 17 15 16 16 16 15 14 14 15 16 17 19 22 22 20 23 27 29 27 24 22 22 24 26 27 27 27 28 28 28 28 28 28 29 29 28 25 24 25 26 25 25 24 23 22 22 20 20 20 19 19 19 17
5 5 6 7 8 9 9 10 11 11 12 13 15 15 14 14 15 17 17 17 18 18 19 19 19 19 19 19 19 18 18 18 18 17 15 15 15 15 13 12 13 13 12 15 18 18 18 21 24 24 24 24 23 24 25 27 28 28 29 29 29 29 29 29 29 29 29 29 27 26 27 28 27 26 26 24 23 22 22 21 21 20 20 20 18
5 4 4 6 7 8 9 10 11 12 13 14 15 16 16 17 18 19 18 18 17 18 20 21 21 20 19 18 18 18 19 19 18 17 16 15 14 15 14 12 12 12 12 13 15 17 18 20 21 21 21 22 22 23 25 26 28 30 30 31 30 30 30 29 30 30 29 29 28 28 28 28 28 27 26 25 24 23 23 22 22 22 21 20 19
5 4 4 4 6 7 8 8 10 12 12 13 15 15 17 19 20 20 20 18 18 19 21 22 22 21 19 17 17 18 19 19 19 18 17 16 15 14 13 12 11 11 11 12 13 15 17 19 19 19 20 20 20 21 23 25 26 28 29 30 30 30 30 29 29 29 29 29 29 29 30 29 28 27 27 26 25 24 24 23 22 22 22 21 20
4 4 4 4 4 5 6 8 10 11 12 13 14 16 18 19 20 20 20 20 20 20 21 22 22 21 19 16 16 18 18 19 19 18 18 17 15 14 13 11 12 13 12 12 14 16 17 18 18 18 18 19 20 21 22 23 24 26 27 29 29 29 29 29 29 29 29 29 29 30 30 30 29 29 28 28 26 25 24 23 23 22 22 21 20
5 5 6 6 6 6 8 11 12 13 14 15 15 16 18 19 20 20 20 21 22 22 23 23 22 21 20 18 17 18 17 18 18 18 18 17 16 15 13 12 14 16 14 13 14 15 16 16 17 17 17 18 19 21 22 23 24 24 26 27 28 28 28 28 29 29 29 29 29 30 31 30 30 30 29 29 28 26 24 24 23 22 22 21 20
6 6 7 7 7 7 10 13 14 14 15 15 15 17 19 20 20 21 21 22 22 23 24 23 22 22 22 21 21 19 17 17 17 17 18 17 17 16 14 12 13 14 13 13 14 14 14 14 15 16 16 17 18 20 22 22 23 24 24 25 26 26 27 28 28 29 29 29 29 30 31 31 31 31 30 30 29 28 26 25 23 22 22 21 20
6 6 6 6 6 8 11 14 15 16 16 16 16 18 20 21 21 21 23 23 22 23 23 23 23 23 23 23 22 20 17 17 17 18 18 17 17 17 16 14 14 14 14 14 14 15 15 15 15 15 16 16 17 20 21 21 21 22 23 24 24 25 26 27 27 28 29 29 29 30 31 31 31 31 31 30 30 29 28 26 24 23 22 22 21
5 5 5 5 6 8 11 13 14 16 17 18 18 19 21 22 21 22 23 23 23 23 23 23 23 23 24 22 20 18 18 18 18 18 18 18 18 17 16 15 14 14 15 14 14 14 15 16 16 17 18 18 19 20 20 19 19 20 22 23 24 25 25 25 26 27 28 29 29 29 30 30 30 29 29 29 29 29 29 27 26 25 23 23 22
5 5 5 5 5 7 9 11 13 15 17 19 20 21 22 23 22 23 24 24 24 23 22 22 23 23 23 21 18 18 18 19 19 19 20 19 19 18 15 14 14 15 15 15 14 14 14 15 16 18 19 20 21 21 20 20 19 19 20 21 23 23 24 24 25 26 27 28 29 28 28 29 29 28 28 28 27 27 28 27 27 26 25 24 24
4 5 5 5 6 7 8 11 13 16 18 20 20 21 23 23 22 23 24 25 25 23 22 21 21 22 22 19 17 18 19 19 19 20 21 20 20 20 17 15 15 15 15 15 15 15 15 15 16 17 19 20 20 21 21 21 21 20 19 20 22 23 24 24 24 25 26 27 27 27 26 27 27 26 26 27 26 26 26 26 25 25 24 24 24
5 5 5 7 9 9 10 12 14 16 18 20 20 21 22 23 22 23 24 24 23 22 22 21 20 20 20 19 18 18 19 20 20 20 21 21 20 20 19 18 16 15 15 15 15 16 16 15 16 17 17 19 19 19 19 19 19 19 20 20 22 23 24 25 25 26 26 26 26 26 25 25 25 25 25 25 25 26 26 26 26 24 24 24 23
4 5 6 9 10 10 11 13 15 17 19 20 21 21 22 23 23 23 24 23 23 22 22 21 20 20 20 19 19 20 20 21 21 20 21 21 21 20 20 19 17 15 15 15 15 16 16 15 15 16 17 18 18 17 16 16 16 17 18 18 20 22 24 24 25 26 26 25 25 26 26 26 25 24 24 24 25 26 26 25 24 24 24 25 24
6 6 8 10 11 10 10 13 15 17 19 20 21 22 23 24 23 23 23 23 22 22 22 21 21 21 21 20 20 21 21 21 21 21 21 21 21 20 20 18 16 15 15 16 16 15 16 15 14 15 16 17 17 17 16 15 15 15 15 17 19 21 22 22 23 24 25 25 25 25 25 25 25 25 26 25 24 25 25 23 22 23 24 25 26
9 9 10 11 11 10 11 14 15 17 18 19 21 22 22 23 23 23 23 23 22 22 22 21 22 22 23 22 21 21 21 22 22 22 22 22 21 20 20 18 16 15 15 15 15 15 15 14 14 15 16 16 16 16 16 16 16 15 15 17 18 21 21 21 21 22 23 24 25 26 25 24 24 25 26 26 25 24 24 24 24 25 24 24 27
10 10 10 10 10 11 13 14 16 17 19 19 21 22 22 22 23 22 23 23 22 22 22 22 23 24 24 23 21 22 22 22 22 22 22 22 21 20 20 18 15 14 14 14 14 15 15 14 13 14 14 14 13 13 13 15 16 15 15 15 16 18 19 20 20 21 21 23 24 25 25 24 24 25 27 28 26 25 25 25 25 24 23 23 27
8 8 9 11 12 13 15 16 17 19 20 20 21 21 22 22 22 22 22 22 22 23 23 24 24 24 24 23 22 22 22 22 22 23 23 22 21 21 20 18 15 14 14 14 13 14 15 15 13 13 12 13 13 13 13 13 13 13 13 14 14 15 17 17 18 19 20 22 23 24 25 25 26 26 28 28 28 27 27 26 26 24 23 24 27
7 8 10 12 13 14 16 17 18 19 20 20 20 21 21 21 21 22 21 21 23 24 25 25 25 24 24 23 21 21 22 22 22 23 23 22 21 20 19 17 15 15 15 14 13 14 16 15 13 13 14 14 14 13 13 13 12 11 12 13 14 15 15 16 16 18 19 20 22 24 25 26 26 27 28 28 28 28 28 28 28 27 26 28 30
8 10 13 15 15 15 15 16 17 19 19 20 20 20 20 21 21 20 21 22 24 26 26 26 25 25 24 22 21 21 21 22 22 22 23 22 20 19 18 16 15 15 15 14 13 14 16 16 15 14 16 17 15 14 13 13 12 12 12 12 14 15 16 16 16 18 19 20 21 22 24 26 26 27 28 29 29 29 28 29 30 30 30 30 29
9 12 15 16 17 17 16 16 18 19 19 19 19 18 19 20 20 20 22 24 25 25 26 26 26 25 24 22 21 21 21 22 22 21 22 22 19 17 16 15 14 15 15 14 14 14 16 17 16 15 16 17 17 16 15 14 14 14 14 14 16 17 17 18 18 18 19 20 21 22 23 24 25 25 26 27 28 29 29 30 31 31 31 31 28
10 14 16 16 17 17 17 17 18 19 19 19 19 18 18 18 20 22 24 25 25 25 25 25 25 25 24 22 22 22 22 23 22 20 21 21 19 17 16 15 14 13 13 14 13 14 15 17 17 17 16 17 17 18 18 17 16 16 16 16 17 17 17 18 20 20 21 21 21 21 22 23 23 24 25 25 25 27 28 31 32 31 30 30 28
12 15 17 16 17 17 18 18 18 19 19 19 19 19 18 18 21 24 25 25 25 25 25 24 24 24 24 23 23 22 23 23 21 19 19 19 19 19 17 16 14 12 12 14 14 14 15 16 17 17 16 17 18 18 19 18 17 17 17 17 17 16 16 18 20 22 22 21 20 20 21 22 23 24 26 26 25 25 26 29 31 30 28 28 28
13 16 17 17 17 17 18 19 19 19 19 19 19 18 18 20 22 24 24 25 25 26 25 24 24 24 23 23 23 23 23 22 19 17 17 18 19 19 17 15 14 13 13 14 14 14 15 14 14 14 16 18 18 17 17 17 16 17 17 17 15 14 13 15 18 20 20 19 19 20 20 21 22 24 26 27 26 25 24 25 27 28 28 29 29
14 16 17 17 17 17 17 18 19 20 19 19 19 18 19 21 23 24 24 25 25 26 26 25 24 25 24 23 23 23 22 21 19 17 15 16 17 18 17 16 14 13 14 14 14 14 15 14 13 14 16 18 18 16 16 17 16 16 15 13 11 9 8 9 12 14 16 16 17 18 18 20 21 22 25 28 27 25 23 23 26 28 30 30 28
14 16 17 17 16 16 16 17 18 20 20 19 20 20 20 21 23 23 24 25 26 25 24 23 23 24 24 22 21 21 21 20 19 16 14 14 16 17 16 16 15 14 14 15 14 13 14 14 14 14 14 15 16 16 16 17 16 15 13 11 9 7 6 5 6 8 11 13 14 15 16 17 17 17 21 25 26 24 22 23 25 26 27 28 27
14 15 16 16 15 15 16 16 18 20 20 20 20 20 21 22 23 23 23 24 25 24 23 21 21 22 22 21 20 19 20 20 19 16 14 15 17 16 14 14 14 14 15 17 16 14 13 14 15 14 14 14 14 15 16 17 17 17 14 11 9 8 7 5 6 7 8 9 10 10 10 10 9 11 15 19 20 20 20 21 22 21 22 24 25
15 16 15 15 15 16 16 17 18 19 20 20 21 21 22 22 23 23 23 23 24 24 24 22 21 20 21 22 21 19 20 20 19 17 16 16 16 15 13 14 15 14 13 16 17 17 15 14 14 14 13 13 13 15 16 15 14 15 14 10 8 8 7 6 6 7 7 6 5 4 3 2 3 6 9 10 11 12 11 12 15 18 20 21 21
16 16 16 15 16 16 16 17 19 20 20 20 21 22 22 22 22 23 24 24 24 25 24 22 20 20 20 21 21 20 20 21 19 18 18 18 17 15 14 14 16 14 11 12 15 17 17 16 17 17 15 14 14 16 16 14 11 10 10 8 7 7 6 6 6 6 5 5 4 4 4 6 7 7 8 8 8 9 10 11 14 16 16 16 16
16 15 15 16 16 16 17 18 19 20 20 20 21 22 23 23 22 23 24 24 24 25 25 22 21 22 22 22 21 20 20 20 20 19 18 18 18 18 17 16 15 15 12 11 13 15 16 16 17 18 18 17 16 16 16 15 12 8 7 6 6 6 5 6 6 6 6 7 6 5 5 7 9 9 9 9 9 11 11 13 15 15 14 12 11
Wind_Direction
336 360 352 350 344 338 267 253 240 234 236 237 236 235 234 233 236 237 236 235 234 232 230 225 223 223 224 225 226 228 229 232 236 239 242 244 245 247 248 249 251 253 255 256 257 260 262 262 262 260 259 260 264 272 277 274 272 278 285 288 284 276 281 289 280 262 255 259 267 270 271 275 277 277 276 272 267 267 265 265 265 261 256 252 250
4 12 7 16 16 5 349 312 272 247 237 232 234 237 237 236 235 236 234 232 231 231 230 231 231 229 227 227 228 230 231 233 235 239 242 245 246 247 248 249 251 253 255 256 256 256 258 259 258 256 255 256 261 269 274 271 267 272 281 282 278 273 274 278 268 244 225 233 244 258 271 273 271 267 264 262 258 258 258 258 260 261 259 256 253
6 10 8 14 15 6 0 353 330 282 257 239 237 236 236 236 237 239 237 233 233 234 234 237 239 237 235 237 237 235 235 238 240 243 247 249 249 249 249 249 251 253 255 255 254 254 254 256 256 255 254 255 259 264 268 267 262 267 276 275 271 269 265 265 260 243 220 212 211 262 318 304 281 268 261 257 254 252 253 255 258 261 263 261 257
7 12 8 11 15 13 9 7 1 336 308 286 268 254 246 240 239 244 244 239 237 239 241 242 243 243 242 243 244 241 239 243 249 252 251 252 252 252 251 251 252 254 256 255 252 252 253 254 254 254 253 254 256 258 261 261 256 261 269 266 261 257 251 255 259 250 233 215 162 52 35 32 300 289 281 268 255 250 252 256 259 262 265 264 261
13 14 9 13 18 18 18 16 11 360 340 320 306 286 267 254 246 247 250 249 244 240 242 243 241 242 242 242 244 245 243 243 250 254 253 253 253 254 254 255 255 256 257 255 252 252 252 252 252 251 251 250 251 253 256 256 252 253 258 258 254 249 249 259 264 260 246 231 216 180 93 348 257 287 315 298 257 246 250 255 257 259 260 261 263
19 17 10 11 15 19 23 22 19 15 5 348 329 310 284 267 254 247 247 250 250 246 245 244 239 236 236 239 242 242 242 243 245 249 252 255 256 259 260 259 260 260 259 256 253 252 250 249 249 248 247 245 247 251 253 252 247 244 246 249 251 250 255 263 265 265 259 243 234 232 242 259 260 241 303 316 288 259 251 253 257 258 258 258 259
13 16 12 10 12 14 15 16 21 22 20 15 1 346 320 288 265 253 247 246 247 246 243 240 237 235 232 236 242 241 239 243 247 248 251 255 258 262 264 262 260 261 261 259 256 253 250 248 248 246 245 244 246 250 250 247 241 237 240 242 245 250 255 259 262 262 257 250 246 243 245 251 260 256 232 263 314 286 263 261 262 261 261 261 261
10 13 13 12 13 13 9 10 17 23 29 32 28 16 354 326 296 273 263 255 250 247 243 240 239 238 234 235 241 242 241 246 250 251 250 253 256 258 261 259 253 251 255 258 256 254 251 249 249 248 247 246 247 249 248 245 237 233 237 238 239 248 254 257 263 264 255 255 256 250 246 249 255 254 245 241 223 290 297 286 272 265 263 264 265
12 13 13 12 14 16 14 14 18 23 29 34 35 30 16 354 329 305 294 285 274 262 255 251 248 244 241 237 238 242 245 249 253 254 251 252 252 252 256 258 253 246 246 251 253 254 253 251 251 250 250 249 248 249 247 243 236 232 234 237 238 245 253 257 262 265 264 265 259 249 243 242 246 247 241 234 211 224 274 294 282 279 273 271 273
9 11 15 17 21 23 22 22 22 24 26 28 29 29 27 22 7 344 327 318 309 294 276 264 256 251 247 243 241 244 247 250 252 251 251 251 251 251 254 256 256 251 246 243 242 245 250 253 253 252 252 252 249 248 245 241 235 230 231 235 239 244 251 255 260 265 271 273 262 244 231 220 221 231 228 221 215 225 248 270 274 278 278 281 287
2 5 12 15 22 25 25 24 22 23 25 24 24 22 24 26 21 12 0 347 335 322 297 269 256 251 251 249 247 248 249 251 250 249 249 249 251 255 257 258 258 255 251 246 238 231 236 249 254 254 254 253 250 246 243 240 235 229 228 232 237 243 249 254 258 262 270 274 265 243 231 226 224 227 226 222 214 212 224 260 264 263 263 274 291
2 3 5 9 14 16 16 17 16 18 20 19 18 15 17 18 16 15 14 8 357 344 324 299 275 260 256 253 253 255 254 252 251 253 254 253 254 258 260 261 260 256 252 248 242 231 226 240 251 252 251 251 250 246 242 241 238 231 227 228 233 239 245 251 254 258 263 268 265 250 240 242 242 240 239 234 228 229 229 231 257 262 263 270 289
360 354 353 359 6 7 9 12 13 14 14 13 12 10 9 9 8 8 11 13 9 1 349 333 318 299 283 272 266 265 264 260 256 257 259 258 257 258 258 258 257 256 253 249 246 236 226 235 246 249 250 251 250 247 244 242 240 233 227 225 229 235 241 246 250 254 257 260 263 257 249 249 248 245 244 243 238 236 231 231 254 252 243 267 289
349 339 340 349 359 6 12 16 17 18 16 13 9 7 4 2 1 360 2 8 12 10 4 352 339 327 313 299 287 279 276 272 265 262 263 262 260 257 256 254 253 256 255 253 252 241 231 234 244 248 250 251 249 247 246 245 242 235 228 226 227 231 237 244 250 253 255 256 261 261 256 254 252 247 244 244 240 236 229 227 239 241 238 256 276
340 336 331 335 350 6 16 23 27 26 25 21 15 11 6 2 359 357 355 359 5 9 9 3 356 347 334 321 311 298 289 284 277 273 271 267 264 259 256 252 251 253 255 256 255 243 234 235 242 247 249 248 247 246 246 247 245 237 230 228 229 231 237 244 250 254 255 255 258 262 262 259 255 249 245 246 244 243 241 239 235 225 246 260 262
314 320 317 324 340 359 11 20 26 28 29 29 24 18 14 9 5 360 355 353 356 1 5 3 359 356 350 338 325 312 300 291 283 279 274 270 268 263 259 256 252 252 252 254 252 242 236 237 241 245 247 247 246 245 244 246 245 240 233 229 229 231 236 242 247 252 254 255 255 258 263 266 260 250 247 248 246 247 250 248 240 224 223 261 270
275 278 280 297 319 339 356 9 16 20 22 22 21 19 17 14 11 7 1 356 354 353 355 357 355 354 352 344 333 321 308 296 287 281 277 273 269 264 263 261 258 254 250 248 247 240 237 239 241 242 245 246 246 245 244 245 245 243 238 234 230 229 233 238 243 249 253 254 253 253 260 268 262 249 247 248 247 248 250 250 246 234 225 221 239
260 268 267 271 279 300 325 349 0 7 9 9 10 10 11 11 7 5 3 1 358 353 350 351 350 348 347 345 338 329 316 303 294 288 282 275 269 266 264 262 260 258 253 246 241 236 235 239 241 241 243 244 245 244 243 243 243 242 241 239 237 235 238 241 244 248 252 253 251 249 253 260 255 245 245 248 247 250 251 248 250 246 238 226 216
264 269 267 259 253 266 293 322 340 349 354 357 359 359 360 2 359 357 356 356 357 355 352 351 347 343 342 342 340 334 322 307 298 293 286 276 271 269 268 266 262 259 256 249 240 235 234 237 239 237 238 241 244 243 242 241 240 240 241 241 242 243 245 248 248 248 250 250 247 245 246 249 247 240 241 246 248 250 251 251 252 250 245 238 229
252 259 256 251 249 261 280 298 319 336 348 352 354 354 356 360 357 352 348 347 349 349 349 349 347 343 339 338 339 337 329 313 298 293 288 279 275 272 269 269 266 261 256 249 241 237 236 239 242 239 235 237 241 242 241 239 238 238 239 240 242 243 245 248 251 250 249 247 244 242 243 244 242 238 239 243 246 249 253 254 254 249 243 243 237
267 262 255 261 271 285 291 296 312 334 353 359 359 358 359 1 356 349 343 343 345 344 344 343 342 341 337 337 337 336 334 325 304 291 289 285 282 279 272 267 266 264 259 251 246 241 238 243 249 246 240 237 239 241 241 238 236 236 238 240 242 242 243 245 247 249 249 248 246 243 242 242 240 238 238 240 243 248 252 251 250 248 245 246 242
268 269 268 279 296 310 317 322 329 342 355 0 3 1 355 352 351 347 344 344 344 343 342 339 338 337 335 336 337 336 336 332 319 299 291 289 285 284 281 272 265 259 255 252 250 245 239 243 248 246 242 239 239 243 242 238 236 235 237 239 241 241 241 241 242 244 246 247 248 245 242 240 239 238 239 240 242 246 247 246 245 246 248 252 251
266 271 271 281 297 309 320 330 337 346 353 353 354 352 347 346 348 347 344 345 345 343 342 341 339 338 336 334 336 338 337 335 330 317 302 296 293 289 286 281 271 258 244 242 247 246 239 239 244 245 245 244 244 246 245 241 239 238 238 239 240 240 240 240 240 240 242 243 245 245 243 240 237 236 238 240 243 244 243 243 244 246 248 252 254
267 268 274 286 297 304 316 327 331 338 345 347 347 346 346 345 345 345 345 344 345 344 345 344 342 341 338 335 336 339 339 337 334 327 316 310 307 302 293 284 278 270 250 241 245 246 240 238 243 247 249 250 249 249 249 246 243 242 242 241 241 242 242 243 242 242 241 240 241 242 243 240 236 235 237 241 242 242 240 240 243 245 247 250 251
266 279 292 295 296 300 310 321 327 332 337 340 343 344 345 344 342 342 343 342 342 343 342 341 339 339 337 336 337 338 339 339 336 330 322 316 313 307 299 287 282 280 267 252 247 245 241 241 244 248 251 254 254 252 251 249 247 246 245 244 244 244 245 245 245 244 242 240 240 241 243 241 238 237 238 240 240 239 239 239 241 244 246 248 250
274 288 284 277 277 282 293 313 328 333 333 334 339 342 343 342 341 341 341 339 340 340 338 336 335 334 333 335 337 336 337 338 338 334 327 319 313 307 301 295 291 288 279 267 258 251 247 245 246 249 251 255 257 256 254 252 252 251 250 248 247 246 246 246 246 244 243 241 241 242 243 242 240 240 242 242 241 239 239 238 240 243 245 246 249
292 294 294 301 297 288 301 320 328 331 332 336 339 342 342 339 338 342 342 340 340 338 336 335 334 333 332 332 335 335 335 336 337 337 332 325 317 309 306 296 275 264 258 256 254 252 251 248 245 245 247 252 256 259 258 256 255 255 255 254 252 250 249 248 247 246 245 245 244 243 242 242 241 243 244 244 243 241 240 240 243 245 245 245 247
330 328 330 335 331 321 324 326 327 332 338 343 346 344 341 336 335 340 341 340 339 336 334 335 336 336 335 334 333 333 333 334 335 335 334 332 326 317 308 287 263 255 249 245 245 247 249 248 244 241 241 246 250 254 256 257 255 255 256 256 255 254 253 251 251 250 249 249 247 244 243 243 244 246 247 247 247 245 243 242 244 245 244 244 245
332 328 325 327 324 316 317 321 327 335 339 343 346 343 339 335 335 337 338 339 338 334 332 333 334 335 335 333 332 331 331 331 332 332 333 332 331 327 317 295 273 265 260 254 251 251 249 248 246 242 238 237 241 247 251 254 255 254 254 255 256 256 256 255 254 254 253 252 250 247 246 246 248 250 250 249 250 250 248 245 245 244 242 242 242
315 311 310 312 310 308 315 324 331 336 338 337 337 337 335 334 335 337 337 337 336 333 332 331 331 333 333 331 331 331 331 330 328 327 329 330 330 330 325 310 289 274 268 265 260 253 247 244 243 243 241 236 236 243 248 251 253 253 253 253 255 256 258 257 256 256 256 254 252 250 249 249 250 251 251 251 251 252 252 250 250 248 244 242 239
301 301 301 302 311 318 322 327 330 333 334 333 330 331 332 332 335 336 336 336 334 332 332 330 329 331 331 330 331 333 333 330 325 323 324 327 328 326 321 313 302 289 280 276 269 259 249 243 240 240 242 241 239 242 244 246 247 248 249 251 253 255 256 256 256 255 255 255 254 253 252 251 250 248 249 250 250 252 253 253 252 250 249 248 241
294 297 298 298 309 318 317 322 327 328 328 329 329 329 330 331 334 337 336 335 332 330 330 328 327 329 329 330 332 334 334 329 324 321 320 323 325 324 319 311 304 298 290 283 277 271 261 252 246 243 243 244 245 244 243 243 243 243 243 245 249 252 253 254 255 255 255 256 256 255 254 251 249 247 248 248 248 249 250 250 251 250 250 250 247
277 277 283 287 293 303 312 320 327 326 326 328 329 328 329 331 333 335 335 332 329 328 327 325 326 327 328 330 331 330 331 328 323 319 319 321 322 322 321 316 309 302 293 286 281 279 273 262 254 250 249 250 250 248 245 243 242 242 242 242 245 249 250 251 253 253 254 254 254 254 253 251 250 251 249 248 246 245 244 244 246 246 246 246 247
273 271 275 283 289 302 315 322 327 328 329 331 332 333 333 333 333 333 332 331 328 327 325 324 325 326 328 330 330 327 325 325 323 319 318 319 320 320 320 321 317 307 295 288 284 282 278 268 259 256 257 259 261 259 253 247 245 244 244 245 246 248 249 250 251 251 251 252 252 252 251 250 252 253 251 247 243 242 241 238 237 236 236 238 241
277 275 278 287 294 302 314 323 329 331 333 335 337 338 337 334 333 331 330 330 328 326 324 324 325 326 327 326 326 324 321 319 321 321 318 317 318 318 320 322 322 313 301 295 289 281 277 274 267 259 258 260 263 265 261 254 250 249 248 247 247 248 249 249 250 251 249 250 251 251 250 250 251 253 253 249 244 241 239 235 233 232 231 235 240
265 269 279 297 307 308 315 325 330 333 337 340 341 340 337 333 332 329 328 329 328 324 324 325 325 325 325 322 321 321 318 316 317 319 318 316 316 317 319 320 319 314 306 302 297 282 270 271 270 262 258 258 259 261 261 259 256 254 252 249 247 247 246 244 245 245 244 246 248 248 247 248 249 251 252 250 245 241 235 232 234 236 237 240 243
276 287 296 311 320 321 326 330 330 334 340 342 342 341 336 332 330 328 328 327 326 323 323 323 322 322 322 319 318 317 316 315 315 315 314 315 315 315 318 318 316 313 306 301 300 290 273 267 268 262 259 260 260 258 256 255 254 251 250 249 247 248 248 247 246 244 244 247 247 245 245 245 244 246 248 247 244 237 232 231 234 238 242 243 244
290 305 314 324 330 330 330 330 331 337 343 345 344 341 336 330 328 327 326 324 322 322 322 320 318 320 320 318 315 315 314 314 314 313 312 314 313 314 316 316 312 308 301 293 291 288 276 269 267 263 260 260 263 262 257 253 250 245 244 245 248 251 251 250 250 250 250 252 252 250 249 246 243 244 246 247 243 236 231 229 230 232 234 237 242
303 314 321 326 330 328 328 331 335 339 343 345 344 341 336 329 326 325 323 320 319 320 320 318 316 318 319 317 314 313 314 313 313 313 313 313 312 313 315 315 310 306 301 291 283 281 277 270 266 266 264 260 262 266 263 257 251 245 241 238 241 246 247 247 248 249 251 253 254 256 254 250 247 247 248 248 246 240 234 231 230 228 225 231 240
315 326 330 327 325 325 326 331 335 338 341 343 342 339 334 328 324 322 319 317 318 319 319 318 316 316 317 316 315 313 314 314 314 315 315 314 312 311 313 313 309 307 304 294 285 284 283 276 269 268 268 264 260 260 260 256 249 241 236 234 236 237 239 242 243 245 249 251 253 256 256 254 251 250 250 251 250 245 240 236 234 228 225 233 240
321 334 335 328 324 323 323 327 334 338 341 342 339 335 330 326 323 319 317 318 320 320 319 318 316 315 316 316 316 316 316 316 316 315 315 314 312 312 313 313 310 308 305 296 289 288 284 277 272 270 269 267 263 260 256 251 244 236 230 232 236 237 238 240 241 243 246 247 248 251 253 255 254 251 250 250 251 251 247 242 238 233 231 235 236
331 335 333 327 321 319 318 324 334 339 340 341 338 330 325 324 320 317 319 322 323 321 320 318 316 316 317 318 318 319 319 318 317 316 315 314 314 314 315 315 312 308 304 295 289 287 283 276 271 271 273 270 264 257 251 245 239 235 229 229 234 238 240 240 240 242 244 246 248 250 252 253 254 253 252 250 250 252 249 245 241 238 236 236 233
330 329 327 324 318 314 314 321 330 336 340 342 338 328 323 321 318 320 324 325 324 324 322 318 316 315 316 318 319 320 321 321 320 318 316 315 315 315 315 315 312 308 304 298 291 287 285 278 270 269 275 276 267 255 246 240 235 233 232 232 233 235 237 238 238 242 246 250 253 255 256 257 257 258 258 255 252 251 249 247 244 238 235 235 232
324 321 322 322 317 313 316 321 327 334 340 342 338 328 321 318 319 324 328 327 325 326 323 318 315 314 315 318 319 319 321 322 323 322 319 318 318 316 313 312 310 307 303 299 294 289 285 276 265 263 273 279 272 256 244 238 236 236 236 236 234 233 234 235 238 242 247 250 254 257 260 261 261 260 260 258 254 251 248 247 245 240 236 233 226
317 317 320 320 316 315 317 320 327 334 337 339 338 330 320 319 324 328 329 327 326 326 323 319 316 314 315 317 317 318 322 324 326 325 321 319 319 316 311 308 307 304 300 298 294 290 283 272 264 267 277 282 277 263 251 245 242 240 239 237 235 236 237 237 238 242 246 249 254 258 262 264 264 261 258 255 252 249 245 245 245 242 239 233 219
316 317 319 319 318 318 317 318 325 332 335 336 336 330 322 323 327 330 330 329 328 326 322 319 317 315 316 317 317 318 322 325 325 322 317 318 318 315 309 305 303 301 298 295 291 289 285 276 269 271 275 279 280 273 261 253 247 243 240 235 229 228 231 235 239 242 245 248 254 261 267 269 267 261 254 249 245 243 242 242 242 239 235 227 212
312 316 318 318 317 317 318 319 323 329 333 333 332 331 329 327 329 332 333 331 329 325 321 319 318 317 318 320 319 318 320 321 319 317 315 318 320 316 309 304 301 300 300 297 289 285 286 282 276 273 273 278 284 280 267 257 251 244 236 226 218 217 221 227 235 240 245 252 260 266 273 277 272 259 247 241 238 239 240 240 239 235 227 218 208
311 316 319 318 316 316 318 320 321 327 332 332 330 331 331 330 332 335 334 331 328 324 321 319 319 318 319 321 321 319 319 319 317 314 313 315 319 319 310 302 301 299 298 297 291 285 285 285 281 280 280 280 282 278 271 265 258 247 234 222 214 215 219 228 245 253 254 259 266 270 275 278 267 245 233 229 228 231 235 236 234 227 215 206 201
311 316 318 318 318 318 318 320 323 328 331 331 331 331 330 331 334 336 336 332 327 323 322 321 321 320 318 318 319 319 320 319 316 313 312 314 318 318 309 303 306 305 296 292 291 288 287 286 283 283 285 284 280 279 282 284 272 251 237 225 215 212 216 233 257 265 258 248 247 244 229 192 189 198 200 202 205 205 206 206 204 200 196 191 186
315 317 319 322 324 323 322 323 326 330 331 331 331 330 329 332 335 336 336 334 329 324 322 323 326 324 319 317 318 318 319 319 316 314 315 317 320 321 317 314 319 323 314 299 295 293 289 285 283 282 282 281 279 278 283 290 283 251 233 226 215 208 215 239 259 259 233 201 182 168 156 145 147 155 154 151 157 158 151 153 162 169 175 175 173
315 315 319 324 327 328 326 325 327 330 330 330 329 328 329 331 334 336 336 334 330 325 322 323 327 325 321 320 319 316 317 318 318 316 316 317 319 322 324 324 326 328 326 315 304 298 291 285 284 285 282 277 274 272 272 276 276 259 234 222 210 201 213 240 244 221 188 174 165 161 165 161 158 158 152 148 150 150 148 152 155 156 160 162 161